Location: Unspecified
(0.0000°N, 0.0000°E)
Time: 06:58:31
(UTC+02:00)

ISS - All Passes

Search period start: 30 July 2014 00:00
Search period end: 09 August 2014 00:00
Orbit: 411 x 419 km, 51.6° (Epoch: 29 July)

Date Brightness Start Highest point End Pass type
(mag) Time Alt. Az. Time Alt. Az. Time Alt. Az.
30 Jul - 09:18:35 10° N 09:21:30 28° NE 09:24:27 10° ESE daylight
30 Jul - 20:54:44 10° S 20:57:08 19° SE 20:59:33 10° E visible
30 Jul - 22:32:00 10° W 22:33:39 13° NW 22:35:17 10° NNW visible
31 Jul - 08:31:09 10° NNE 08:32:43 13° NE 08:34:17 10° E daylight
31 Jul - 10:06:42 10° WNW 10:09:14 20° SW 10:11:46 10° S daylight
31 Jul - 21:41:55 10° WSW 21:44:51 29° NW 21:47:47 10° N visible
01 Aug - 09:17:13 10° NW 09:20:27 48° SW 09:23:41 10° SSE daylight
01 Aug - 20:52:47 10° SW 20:56:05 80° NW 20:59:22 10° NNE visible
02 Aug - 08:28:22 10° NNW 08:31:40 61° NE 08:34:58 10° SE daylight
02 Aug - 20:04:13 10° SSW 20:07:18 37° SE 20:10:22 10° ENE daylight
03 Aug - 07:40:06 10° N 07:42:52 24° NE 07:45:39 10° ESE visible
03 Aug - 09:18:43 10° WSW 09:19:23 10° SW 09:20:04 10° SW daylight
03 Aug - 19:16:22 10° SSE 19:18:29 16° SE 19:20:36 10° E daylight
03 Aug - 20:52:58 10° W 20:55:00 15° NW 20:57:02 10° NNW visible
04 Aug - 06:53:10 10° NE 06:54:03 11° NE 06:54:55 10° ENE visible
04 Aug - 08:27:49 10° WNW 08:30:34 23° SW 08:33:18 10° S daylight
04 Aug - 20:03:08 10° WSW 20:06:11 35° NW 20:09:14 10° NNE daylight
05 Aug - 07:38:27 10° NW 07:41:45 59° SW 07:45:03 10° SSE visible
05 Aug - 19:14:05 10° SSW 19:17:23 83° SE 19:20:40 10° NE daylight
06 Aug - 06:49:42 10° NNW 06:52:56 50° NE 06:56:11 10° SE visible
06 Aug - 18:25:36 10° S 18:28:34 30° SE 18:31:31 10° ENE daylight
07 Aug - 06:01:33 10° N 06:04:07 20° NE 06:06:41 10° ESE visible
07 Aug - 07:39:08 10° W 07:40:38 12° SW 07:42:07 10° SSW visible
07 Aug - 17:38:00 10° SSE 17:39:43 14° SE 17:41:27 10° E daylight
07 Aug - 19:13:53 10° W 19:16:14 18° NW 19:18:34 10° N daylight
08 Aug - 06:48:52 10° WNW 06:51:46 28° SW 06:54:42 10° S visible
08 Aug - 18:24:14 10° SW 18:27:24 43° NW 18:30:32 10° NNE daylight
